Zurück zum Katalog

DMSP 5D-2 F11 DEB

AktivPO
NORAD 29070·DEBRIS·🇺🇸 United States

Gestartet Nov 28, 1991 von Vandenberg Space Force Base

Loading…

Nächste Überflüge (nächste 24 Stunden)

TLE

AktuellSource: Space-Track

Epoche: Sep 14, 2026, 02:54 UTC

1 29070U 91082BR  26257.12101356  .00045731  00000-0  32901-2 0  9996
2 29070  98.5885  35.2542 0005511  85.4288 274.7565 15.04048890146311

Verfolge DMSP 5D-2 F11 DEB in Echtzeit mit AllMySat

Download on the App Store